Jackson, MN

12:13 AM CDT on May 22, 2018 (GMT -0500)
Jackson Municipal

Weather History for KMJQ - December, 2013

Change the Weather History Date:

Saturday, December 28, 2013

  Actual Average Record
Temperature  
Mean Temperature 24 °F -  
Max Temperature 44 °F 23 °F 51 °F (2002)
Min Temperature 5 °F 9 °F 1 °F (1996)
Degree Days  
Heating Degree Days 40    
Moisture  
Dew Point 23 °F    
Average Humidity 76    
Maximum Humidity 93    
Minimum Humidity 57    
Precipitation  
Precipitation 0.00 in - - ()
Sea Level Pressure  
Sea Level Pressure 29.84 in    
Wind  
Wind Speed 14 mph (SW)    
Max Wind Speed 40 mph    
Max Gust Speed 51 mph    
Visibility 8 miles    
Events Snow    
Averages and records for this station are not official NWS values.
T = Trace of Precipitation, MM = Missing Value Source: NWS Daily Summary

Daily Weather History Graph

Daily Weather History Graph

Search for Another Location

Airport or City:

Astronomy

Dec. 28, 2013 Rise Set
Actual Time 7:52 AM CST 4:50 PM CST
Civil Twilight 7:20 AM CST 5:23 PM CST
Nautical Twilight 6:43 AM CST 5:59 PM CST
Astronomical Twilight 6:09 AM CST 6:34 PM CST
Moon 3:26 AM CST (12/28) 1:45 PM CST (12/28)
Length of Visible Light 10h 03m
Length of Day
8h 57m
Waning Crescent, 19% of the Moon is Illuminated
Dec 28
Waning Crescent
Jan 1
New
Jan 7
First Quarter
Jan 15
Full
Jan 23
Last Quarter

Hourly Weather History & Observations

Time (CST) Temp. Windchill Dew Point Humidity Pressure Visibility Wind Dir Wind Speed Gust Speed Precip Events Conditions
12:13 AM 30.2 °F 21.9 °F 26.6 °F 86% 29.98 in 10.0 mi SSW 9.2 mph - N/A   Clear
12:33 AM 30.2 °F 23.4 °F 26.6 °F 86% 29.97 in 10.0 mi SSW 6.9 mph - N/A   Clear
12:53 AM 30.2 °F 21.9 °F 26.6 °F 86% 29.96 in 10.0 mi SSW 9.2 mph - N/A   Clear
1:13 AM 28.4 °F 20.4 °F 26.6 °F 93% 29.95 in 10.0 mi South 8.1 mph - N/A   Clear
1:32 AM 28.4 °F 19.7 °F 24.8 °F 86% 29.94 in 10.0 mi South 9.2 mph - N/A   Clear
1:53 AM 28.4 °F 19.7 °F 26.6 °F 93% 29.93 in 10.0 mi SSW 9.2 mph - N/A   Clear
2:12 AM 30.2 °F 20.8 °F 26.6 °F 86% 29.93 in 10.0 mi SSW 11.5 mph - N/A   Clear
2:33 AM 32.0 °F 24.2 °F 28.4 °F 87% 29.93 in 10.0 mi SSW 9.2 mph - N/A   Clear
2:53 AM 30.2 °F 20.8 °F 26.6 °F 86% 29.92 in 10.0 mi South 11.5 mph - N/A   Clear
3:12 AM 30.2 °F 20.2 °F 26.6 °F 86% 29.91 in 10.0 mi South 12.7 mph - N/A   Clear
3:33 AM 30.2 °F 21.3 °F 26.6 °F 86% 29.90 in 10.0 mi South 10.4 mph - N/A   Clear
3:53 AM 30.2 °F 21.9 °F 26.6 °F 86% 29.89 in 10.0 mi SSW 9.2 mph - N/A   Clear
4:12 AM 30.2 °F 22.6 °F 26.6 °F 86% 29.88 in 10.0 mi SSW 8.1 mph - N/A   Clear
4:33 AM 30.2 °F 21.9 °F 26.6 °F 86% 29.88 in 10.0 mi SSW 9.2 mph - N/A   Clear
4:53 AM 32.0 °F 23.0 °F 26.6 °F 80% 29.87 in 10.0 mi SSW 11.5 mph - N/A   Clear
5:12 AM 32.0 °F 23.6 °F 26.6 °F 80% 29.86 in 10.0 mi South 10.4 mph - N/A   Clear
5:33 AM 32.0 °F 22.5 °F 26.6 °F 80% 29.86 in 10.0 mi South 12.7 mph - N/A   Clear
5:53 AM 32.0 °F 22.5 °F 26.6 °F 80% 29.85 in 10.0 mi South 12.7 mph - N/A   Clear
6:12 AM 32.0 °F 23.0 °F 26.6 °F 80% 29.85 in 10.0 mi SSW 11.5 mph - N/A   Clear
6:33 AM 32.0 °F 23.0 °F 24.8 °F 75% 29.83 in 10.0 mi SSW 11.5 mph - N/A   Clear
6:53 AM 32.0 °F 22.5 °F 24.8 °F 75% 29.83 in 10.0 mi SSW 12.7 mph - N/A   Clear
7:12 AM 32.0 °F 22.5 °F 24.8 °F 75% 29.83 in 10.0 mi SSW 12.7 mph - N/A   Clear
7:33 AM 32.0 °F 22.1 °F 24.8 °F 75% 29.82 in 10.0 mi SSW 13.8 mph - N/A   Clear
7:53 AM 32.0 °F 22.1 °F 23.0 °F 69% 29.81 in 10.0 mi SSW 13.8 mph - N/A   Clear
8:12 AM 32.0 °F 22.1 °F 24.8 °F 75% 29.81 in 10.0 mi SSW 13.8 mph - N/A   Clear
8:33 AM 32.0 °F 22.5 °F 24.8 °F 75% 29.80 in 10.0 mi SSW 12.7 mph - N/A   Clear
8:53 AM 33.8 °F 23.9 °F 24.8 °F 70% 29.79 in 10.0 mi South 15.0 mph - N/A   Clear
9:13 AM 33.8 °F 24.3 °F 24.8 °F 70% 29.79 in 10.0 mi SSW 13.8 mph - N/A   Clear
9:33 AM 33.8 °F 23.9 °F 26.6 °F 75% 29.78 in 10.0 mi South 15.0 mph - N/A   Clear
9:53 AM 35.6 °F 25.5 °F 26.6 °F 70% 29.77 in 10.0 mi SSW 17.3 mph - N/A   Clear
10:13 AM 35.6 °F 26.2 °F 26.6 °F 70% 29.76 in 10.0 mi SSW 15.0 mph - N/A   Clear
10:33 AM 37.4 °F 29.3 °F 26.6 °F 65% 29.76 in 10.0 mi South 12.7 mph - N/A   Clear
10:53 AM 37.4 °F 28.9 °F 28.4 °F 70% 29.75 in 10.0 mi SSW 13.8 mph - N/A   Clear
11:13 AM 39.2 °F 31.6 °F 28.4 °F 65% 29.74 in 10.0 mi SSW 12.7 mph - N/A   Clear
11:33 AM 41.0 °F 33.9 °F 28.4 °F 61% 29.73 in 10.0 mi SSW 12.7 mph - N/A   Clear
11:53 AM 41.0 °F 33.5 °F 28.4 °F 61% 29.72 in 10.0 mi SSW 13.8 mph - N/A   Clear
12:13 PM 41.0 °F 32.8 °F 30.2 °F 65% 29.71 in 10.0 mi South 16.1 mph - N/A   Clear
12:32 PM 41.0 °F 33.9 °F 30.2 °F 65% 29.69 in 10.0 mi South 12.7 mph - N/A   Clear
12:53 PM 42.8 °F 35.8 °F 30.2 °F 61% 29.68 in 10.0 mi SSW 13.8 mph - N/A   Clear
1:13 PM 42.8 °F 35.4 °F 30.2 °F 61% 29.66 in 10.0 mi South 15.0 mph - N/A   Clear
1:32 PM 42.8 °F 35.4 °F 30.2 °F 61% 29.66 in 10.0 mi SSW 15.0 mph 19.6 mph N/A   Clear
1:53 PM 44.6 °F 38.1 °F 30.2 °F 57% 29.65 in 10.0 mi SSW 13.8 mph - N/A   Clear
2:13 PM 44.6 °F 38.8 °F 30.2 °F 57% 29.65 in 10.0 mi SSW 11.5 mph - N/A   Clear
2:32 PM 44.6 °F 39.2 °F 30.2 °F 57% 29.66 in 10.0 mi SW 10.4 mph - N/A   Clear
2:53 PM 44.6 °F 40.2 °F 30.2 °F 57% 29.67 in 10.0 mi WSW 8.1 mph - N/A   Clear
3:13 PM 44.6 °F 38.8 °F 32.0 °F 61% 29.68 in 10.0 mi WSW 11.5 mph - N/A   Clear
3:32 PM 44.6 °F 38.1 °F 30.2 °F 57% 29.69 in 10.0 mi WSW 13.8 mph 18.4 mph N/A   Clear
3:53 PM 42.8 °F 36.2 °F 30.2 °F 61% 29.71 in 10.0 mi West 12.7 mph 17.3 mph N/A   Clear
4:13 PM 41.0 °F 33.1 °F 30.2 °F 65% 29.72 in 10.0 mi West 15.0 mph - N/A   Clear
4:32 PM 41.0 °F 32.5 °F 30.2 °F 65% 29.73 in 10.0 mi WNW 17.3 mph - N/A   Clear
4:53 PM 37.4 °F 27.8 °F 30.2 °F 75% 29.74 in 10.0 mi WNW 17.3 mph 21.9 mph N/A   Clear
5:12 PM 37.4 °F 25.4 °F 30.2 °F 75% 29.75 in 10.0 mi NNW 27.6 mph 35.7 mph N/A   Clear
5:33 PM 32.0 °F 18.1 °F 28.4 °F 87% 29.78 in 10.0 mi NW 27.6 mph 39.1 mph N/A   Mostly Cloudy
5:53 PM 30.2 °F 15.7 °F 26.6 °F 86% 29.80 in 2.5 mi NW 27.6 mph 38.0 mph N/A Snow Light Snow
6:13 PM 28.4 °F 12.7 °F 24.8 °F 86% 29.82 in 3.0 mi NW 29.9 mph 40.3 mph N/A Snow Light Snow
6:33 PM 26.6 °F 10.8 °F 23.0 °F 86% 29.83 in 3.0 mi NW 27.6 mph 38.0 mph N/A   Overcast
6:53 PM 24.8 °F 8.4 °F 21.2 °F 86% 29.86 in 4.0 mi NW 27.6 mph 36.8 mph N/A   Overcast
7:13 PM 21.2 °F 1.9 °F 17.6 °F 86% 29.87 in 3.0 mi NW 34.5 mph 48.3 mph N/A   Haze
7:33 PM 19.4 °F -0.3 °F 15.8 °F 86% 29.88 in 2.5 mi NW 33.4 mph 46.0 mph N/A   Overcast
7:53 PM 17.6 °F -2.5 °F 14.0 °F 86% 29.90 in 2.0 mi NW 32.2 mph 39.1 mph N/A Snow Light Snow
8:12 PM 15.8 °F -5.5 °F 10.4 °F 79% 29.91 in 2.5 mi NW 34.5 mph 48.3 mph N/A Snow Light Snow
8:33 PM 14.0 °F -9.1 °F 8.6 °F 79% 29.92 in 1.5 mi NW 39.1 mph 49.5 mph N/A Snow Light Snow
8:53 PM 12.2 °F -10.2 °F 8.6 °F 85% 29.93 in 2.0 mi NW 33.4 mph 42.6 mph N/A Snow Light Snow
9:13 PM 12.2 °F -10.2 °F 6.8 °F 79% 29.95 in 1.5 mi NW 33.4 mph 43.7 mph N/A Snow Light Snow
9:33 PM 10.4 °F -11.0 °F 5.0 °F 79% 29.96 in 1.5 mi NW 27.6 mph 41.4 mph N/A Snow Light Snow
9:53 PM 10.4 °F -14.1 °F 5.0 °F 79% 29.97 in 1.2 mi NW 39.1 mph 46.0 mph N/A Snow Light Snow
10:13 PM 8.6 °F -15.4 °F 3.2 °F 79% 29.98 in 1.0 mi NW 34.5 mph 47.2 mph N/A Snow Light Snow
10:33 PM 8.6 °F -14.5 °F 3.2 °F 79% 30.00 in 1.2 mi NW 31.1 mph 44.9 mph N/A Snow Light Snow
10:53 PM 6.8 °F -19.3 °F 1.4 °F 79% 30.01 in 1.0 mi NW 40.3 mph 47.2 mph N/A Snow Light Snow
11:13 PM 6.8 °F -16.9 °F 1.4 °F 79% 30.03 in 1.0 mi NW 31.1 mph 50.6 mph N/A Snow Light Snow
11:33 PM 5.0 °F -19.4 °F -0.4 °F 78% 30.04 in 2.0 mi NW 31.1 mph 43.7 mph N/A   Haze
11:53 PM 5.0 °F -19.4 °F -0.4 °F 78% 30.05 in 2.5 mi NW 31.1 mph 48.3 mph N/A   Haze